College Park, MD

4:11 PM EDT on June 26, 2017 (GMT -0400)
College Park

Weather History for KCGS - May, 2013

Change the Weather History Date:

Friday, May 10, 2013

  Actual Average Record
Temperature  
Mean Temperature 70 °F -  
Max Temperature 87 °F 73 °F 95 °F (1963)
Min Temperature 54 °F 50 °F 33 °F (1962)
Cooling Degree Days 6    
Growing Degree Days 20 (Base 50)    
Moisture  
Dew Point 60 °F    
Average Humidity 68    
Maximum Humidity 100    
Minimum Humidity 35    
Precipitation  
Precipitation 0.00 in - - ()
Sea Level Pressure  
Sea Level Pressure 29.96 in    
Wind  
Wind Speed 2 mph (South)    
Max Wind Speed 12 mph    
Max Gust Speed 22 mph    
Visibility 8 miles    
Events      
Averages and records for this station are not official NWS values.
T = Trace of Precipitation, MM = Missing Value Source: NWS Daily Summary

Daily Weather History Graph

Daily Weather History Graph

Search for Another Location

Airport or City:

Trip Planner

Search our weather history database for the weather conditions in past years. The results will help you decide how hot, cold, wet, or windy it might be!

Date:

Astronomy

May. 10, 2013 Rise Set
Actual Time 5:59 AM EDT 8:09 PM EDT
Civil Twilight 5:29 AM EDT 8:38 PM EDT
Nautical Twilight 4:53 AM EDT 9:15 PM EDT
Astronomical Twilight 4:14 AM EDT 9:55 PM EDT
Moon 6:22 AM EDT (5/10) 8:56 PM EDT (5/10)
Length of Visible Light 15h 09m
Length of Day
14h 09m
New Moon, 0% of the Moon is Illuminated
May 10
New Moon
May 18
First Quarter
May 25
Full
May 31
Last Quarter
Jun 8
New

Hourly Weather History & Observations

Time (EDT) Temp. Heat Index Dew Point Humidity Pressure Visibility Wind Dir Wind Speed Gust Speed Precip Events Conditions
12:00 AM 61.3 °F - 61.3 °F 100% 30.00 in 7.0 mi Calm Calm - N/A   Clear
12:25 AM 61.0 °F - 61.0 °F 100% 30.01 in 4.0 mi Calm Calm - N/A   Clear
12:45 AM 60.3 °F - 60.3 °F 100% 30.01 in 4.0 mi Calm Calm - N/A   Clear
1:05 AM 59.9 °F - 59.9 °F 100% 30.01 in 1.0 mi Calm Calm - N/A   Unknown
1:45 AM 59.5 °F - 59.5 °F 100% 30.01 in 0.5 mi Calm Calm - N/A   Unknown
4:45 AM 55.6 °F - 55.6 °F 100% 30.00 in 2.5 mi Calm Calm - N/A   Clear
5:05 AM 55.6 °F - 55.6 °F 100% 30.00 in 0.8 mi Calm Calm - N/A   Unknown
6:05 AM 54.3 °F - 54.3 °F 100% 30.00 in 4.0 mi Calm Calm - N/A   Clear
6:25 AM 54.9 °F - 54.9 °F 100% 30.01 in 3.0 mi Calm Calm - N/A   Clear
7:05 AM 56.8 °F - 56.8 °F 100% 30.02 in 7.0 mi Calm Calm - N/A   Clear
7:25 AM 58.1 °F - 58.1 °F 100% 30.02 in 7.0 mi Calm Calm - N/A   Clear
7:45 AM 60.6 °F - 60.6 °F 100% 30.01 in 10.0 mi Calm Calm - N/A   Clear
8:05 AM 63.1 °F - 61.5 °F 94% 30.01 in 10.0 mi Calm Calm - N/A   Clear
8:25 AM 65.5 °F - 61.0 °F 85% 30.02 in 10.0 mi Calm Calm - N/A   Clear
8:45 AM 66.7 °F - 61.2 °F 82% 30.02 in 10.0 mi Calm Calm - N/A   Clear
9:05 AM 69.1 °F - 62.8 °F 80% 30.02 in 10.0 mi Calm Calm - N/A   Clear
9:25 AM 71.6 °F - 62.6 °F 73% 30.02 in 10.0 mi Calm Calm - N/A   Clear
9:45 AM 73.2 °F - 61.3 °F 66% 30.02 in 10.0 mi Calm Calm - N/A   Clear
10:05 AM 74.5 °F - 62.4 °F 66% 30.02 in 10.0 mi Calm Calm - N/A   Clear
10:25 AM 75.7 °F - 61.5 °F 61% 30.02 in 10.0 mi Calm Calm - N/A   Clear
10:45 AM 77.7 °F - 60.1 °F 54% 30.02 in 10.0 mi Calm Calm - N/A   Clear
11:05 AM 79.0 °F - 59.5 °F 51% 30.01 in 10.0 mi SSE 3.5 mph - N/A   Clear
11:25 AM 79.7 °F - 58.3 °F 48% 30.01 in 10.0 mi SSE 4.6 mph - N/A   Clear
12:05 PM 81.7 °F 81.8 °F 58.3 °F 45% 29.99 in 10.0 mi Calm Calm - N/A   Clear
12:45 PM 82.4 °F 82.2 °F 58.1 °F 43% 29.98 in 10.0 mi Calm Calm - N/A   Clear
1:05 PM 82.8 °F 82.1 °F 56.3 °F 40% 29.98 in 10.0 mi South 6.9 mph - N/A   Clear
1:25 PM 83.7 °F 83.1 °F 57.4 °F 41% 29.97 in 10.0 mi South 6.9 mph - N/A   Clear
1:45 PM 84.2 °F 83.2 °F 55.8 °F 38% 29.96 in 10.0 mi South 8.1 mph - N/A   Clear
2:05 PM 84.7 °F 83.7 °F 56.3 °F 38% 29.96 in 10.0 mi South 8.1 mph - N/A   Clear
2:25 PM 85.1 °F 83.9 °F 56.3 °F 37% 29.95 in 10.0 mi South 5.8 mph - N/A   Clear
2:45 PM 86.0 °F 84.7 °F 56.1 °F 36% 29.94 in 10.0 mi South 6.9 mph - N/A   Clear
3:00 PM 86.4 °F 85.2 °F 57.4 °F 37% 29.94 in 10.0 mi South 10.4 mph 16.1 mph N/A   Clear
3:25 PM 86.2 °F 85.0 °F 56.8 °F 37% 29.93 in 10.0 mi SSW 4.6 mph - N/A   Clear
4:05 PM 86.9 °F 85.5 °F 56.5 °F 35% 29.91 in 10.0 mi SSW 8.1 mph - N/A   Clear
4:25 PM 87.1 °F 85.7 °F 56.5 °F 35% 29.90 in 10.0 mi SSE 9.2 mph - N/A   Clear
5:05 PM 86.2 °F 84.7 °F 55.8 °F 35% 29.90 in 10.0 mi SSW 6.9 mph - N/A   Clear
5:25 PM 85.6 °F 84.3 °F 56.1 °F 36% 29.90 in 10.0 mi South 6.9 mph - N/A   Scattered Clouds
5:45 PM 86.0 °F 84.9 °F 56.7 °F 37% 29.90 in 10.0 mi South 6.9 mph - N/A   Clear
6:05 PM 85.5 °F 84.6 °F 57.6 °F 39% 29.88 in 10.0 mi SSE 6.9 mph - N/A   Clear
7:25 PM 80.6 °F 81.8 °F 62.4 °F 54% 29.87 in 10.0 mi SE 5.8 mph - N/A   Clear
7:45 PM 80.1 °F 81.2 °F 62.1 °F 54% 29.87 in 10.0 mi Calm Calm - N/A   Clear
8:05 PM 79.0 °F - 62.2 °F 56% 29.88 in 10.0 mi Calm Calm - N/A   Clear
8:25 PM 78.8 °F - 62.6 °F 57% 29.88 in 10.0 mi Calm Calm - N/A   Clear
8:45 PM 76.3 °F - 63.9 °F 65% 29.89 in 10.0 mi Calm Calm - N/A   Scattered Clouds
9:05 PM 75.4 °F - 64.6 °F 69% 29.89 in 10.0 mi Calm Calm - N/A   Clear
9:20 PM 75.2 °F - 64.6 °F 69% 29.89 in 10.0 mi Calm Calm - N/A   Scattered Clouds
9:45 PM 73.0 °F - 63.5 °F 72% 29.92 in 10.0 mi NW 11.5 mph 21.9 mph N/A   Overcast
10:05 PM 71.1 °F - 64.0 °F 78% 29.94 in 10.0 mi NNW 9.2 mph - N/A   Overcast
10:25 PM 69.3 °F - 65.3 °F 87% 29.94 in 10.0 mi NNW 5.8 mph - N/A   Overcast
10:45 PM 68.0 °F - 66.4 °F 95% 29.91 in 10.0 mi East 4.6 mph - N/A   Overcast
11:05 PM 67.8 °F - 67.1 °F 98% 29.95 in 1.8 mi West 4.6 mph - N/A   Overcast
11:25 PM 67.1 °F - 66.9 °F 99% 29.92 in 7.0 mi Calm Calm - N/A   Overcast
11:45 PM 67.1 °F - 66.9 °F 99% 29.94 in 5.0 mi Calm Calm - N/A   Overcast